When you browse on this site, cookies collect data to enhance your experience and personalize the content and advertising you see.
Visit our Privacy Policy to learn more. By continuing to use the site, you agree to this use of cookies and data.
  • în România
  • Lista ţărilor
  • Pe 7 zile
  • Temperatura apei
  • Hartă satelitară
  • Meteo pe hartă
  • Widget-uri
  • user-avatar
    Intrare

    Meteo pe oră la Elyshevo

    Astăzi, 22 Iulie, Luni

    Timp Temperatura Precipitaţii Vânt Presiune Umiditate
    00:00 +16°C° 0 mm 2 m/s 747 mmHg 93%
    01:00 +16°C° 0 mm 2 m/s 747 mmHg 94%
    02:00 +15°C° 0 mm 2 m/s 747 mmHg 94%
    03:00 +15°C° 0 mm 2 m/s 746 mmHg 95%
    04:00 +15°C° 0 mm 2 m/s 746 mmHg 96%
    05:00 +15°C° 0 mm 2 m/s 747 mmHg 95%
    06:00 +16°C° 0 mm 3 m/s 747 mmHg 94%
    07:00 +17°C° 0 mm 3 m/s 747 mmHg 92%
    08:00 +18°C° 0.2 mm 3 m/s 747 mmHg 89%
    09:00 +19°C° 0.2 mm 3 m/s 746 mmHg 85%
    10:00 +20°C° 0 mm 3 m/s 746 mmHg 82%
    11:00 +21°C° 0.5 mm 4 m/s 746 mmHg 80%
    12:00 +21°C° 0.5 mm 4 m/s 746 mmHg 78%
    13:00 +22°C° 0.5 mm 4 m/s 746 mmHg 76%
    14:00 +22°C° 0.4 mm 4 m/s 746 mmHg 76%
    15:00 +22°C° 0.4 mm 4 m/s 745 mmHg 76%
    16:00 +22°C° 0.4 mm 3 m/s 745 mmHg 75%
    17:00 +21°C° 0.1 mm 3 m/s 745 mmHg 78%
    18:00 +21°C° 0.1 mm 3 m/s 745 mmHg 82%
    19:00 +20°C° 0.1 mm 2 m/s 745 mmHg 85%
    20:00 +19°C° 0.1 mm 2 m/s 745 mmHg 88%
    21:00 +18°C° 0.1 mm 2 m/s 745 mmHg 90%
    22:00 +16°C° 0.1 mm 2 m/s 745 mmHg 93%
    23:00 +16°C° 0 mm 2 m/s 745 mmHg 94%

    Mâine, 23 Iulie, Marţi

    Timp Temperatura Precipitaţii Vânt Presiune Umiditate
    00:00 +15°C° 0 mm 2 m/s 744 mmHg 95%
    01:00 +15°C° 0 mm 2 m/s 744 mmHg 96%
    02:00 +14°C° 0 mm 2 m/s 744 mmHg 96%
    03:00 +14°C° 0 mm 2 m/s 744 mmHg 96%
    04:00 +14°C° 0 mm 2 m/s 745 mmHg 97%
    05:00 +14°C° 0 mm 2 m/s 745 mmHg 96%
    06:00 +15°C° 0 mm 2 m/s 745 mmHg 95%
    07:00 +16°C° 0 mm 2 m/s 745 mmHg 95%
    08:00 +17°C° 0 mm 2 m/s 745 mmHg 92%
    09:00 +18°C° 0 mm 3 m/s 745 mmHg 89%
    10:00 +19°C° 0 mm 3 m/s 745 mmHg 86%
    11:00 +20°C° 0.5 mm 3 m/s 745 mmHg 83%
    12:00 +21°C° 0.5 mm 4 m/s 745 mmHg 80%
    13:00 +22°C° 0.5 mm 4 m/s 745 mmHg 77%
    14:00 +22°C° 0.5 mm 4 m/s 745 mmHg 77%
    15:00 +22°C° 0.5 mm 4 m/s 745 mmHg 77%
    16:00 +22°C° 0.5 mm 4 m/s 745 mmHg 77%
    17:00 +21°C° 0.3 mm 3 m/s 746 mmHg 81%
    18:00 +21°C° 0.3 mm 3 m/s 746 mmHg 85%
    19:00 +20°C° 0.3 mm 3 m/s 746 mmHg 89%
    20:00 +19°C° 0.3 mm 3 m/s 746 mmHg 91%
    21:00 +18°C° 0.3 mm 3 m/s 746 mmHg 93%
    22:00 +16°C° 0.3 mm 3 m/s 746 mmHg 95%
    23:00 +16°C° 0 mm 2 m/s 746 mmHg 95%

    Poimâine, 24 Iulie, Miercuri

    Timp Temperatura Precipitaţii Vânt Presiune Umiditate
    00:00 +16°C° 0 mm 2 m/s 747 mmHg 96%
    01:00 +15°C° 0 mm 2 m/s 747 mmHg 96%
    02:00 +15°C° 0 mm 2 m/s 747 mmHg 96%
    03:00 +15°C° 0 mm 1 m/s 747 mmHg 96%
    04:00 +14°C° 0 mm 1 m/s 747 mmHg 96%
    05:00 +15°C° 0 mm 2 m/s 748 mmHg 95%
    06:00 +16°C° 0 mm 2 m/s 748 mmHg 94%
    07:00 +17°C° 0 mm 2 m/s 748 mmHg 92%
    08:00 +18°C° 0 mm 2 m/s 748 mmHg 89%
    09:00 +19°C° 0 mm 3 m/s 748 mmHg 85%
    10:00 +20°C° 0 mm 3 m/s 748 mmHg 82%
    11:00 +21°C° 0.3 mm 3 m/s 748 mmHg 80%
    12:00 +22°C° 0.3 mm 4 m/s 749 mmHg 77%
    13:00 +25°C° 0.3 mm 4 m/s 749 mmHg 75%
    14:00 +23°C° 0.5 mm 4 m/s 749 mmHg 76%
    15:00 +24°C° 0.5 mm 3 m/s 749 mmHg 77%
    16:00 +24°C° 0.5 mm 3 m/s 749 mmHg 79%
    17:00 +24°C° 0.1 mm 3 m/s 749 mmHg 80%
    18:00 +23°C° 0.1 mm 2 m/s 749 mmHg 81%
    19:00 +23°C° 0.1 mm 2 m/s 749 mmHg 83%
    20:00 +21°C° 0 mm 2 m/s 749 mmHg 84%
    21:00 +19°C° 0 mm 2 m/s 749 mmHg 86%
    22:00 +18°C° 0 mm 2 m/s 750 mmHg 88%
    23:00 +18°C° 0 mm 2 m/s 750 mmHg 88%

    25 Iulie, Joi

    Timp Temperatura Precipitaţii Vânt Presiune Umiditate
    00:00 +17°C° 0 mm 2 m/s 750 mmHg 88%
    01:00 +18°C° 0 mm 1 m/s 750 mmHg 88%
    02:00 +18°C° 0 mm 1 m/s 750 mmHg 88%
    03:00 +16°C° 0 mm 1 m/s 750 mmHg 88%
    04:00 +16°C° 0 mm 1 m/s 750 mmHg 87%
    05:00 +18°C° 0 mm 1 m/s 751 mmHg 85%
    06:00 +20°C° 0 mm 1 m/s 751 mmHg 83%
    07:00 +21°C° 0 mm 1 m/s 751 mmHg 81%
    08:00 +23°C° 0 mm 1 m/s 751 mmHg 75%
    09:00 +24°C° 0 mm 1 m/s 751 mmHg 70%
    10:00 +26°C° 0 mm 1 m/s 751 mmHg 64%
    11:00 +26°C° 0 mm 1 m/s 751 mmHg 61%
    12:00 +27°C° 0 mm 2 m/s 751 mmHg 58%
    13:00 +28°C° 0 mm 2 m/s 751 mmHg 54%
    14:00 +28°C° 0 mm 2 m/s 751 mmHg 56%
    15:00 +28°C° 0 mm 2 m/s 751 mmHg 57%
    16:00 +28°C° 0 mm 2 m/s 751 mmHg 58%
    17:00 +27°C° 0 mm 2 m/s 751 mmHg 64%
    18:00 +26°C° 0 mm 2 m/s 751 mmHg 69%
    19:00 +25°C° 0 mm 2 m/s 750 mmHg 74%
    20:00 +23°C° 0 mm 2 m/s 751 mmHg 75%
    21:00 +20°C° 0 mm 2 m/s 751 mmHg 75%
    22:00 +19°C° 0 mm 2 m/s 751 mmHg 76%
    23:00 +19°C° 0 mm 2 m/s 751 mmHg 79%

    26 Iulie, Vineri

    Timp Temperatura Precipitaţii Vânt Presiune Umiditate
    00:00 +18°C° 0 mm 2 m/s 751 mmHg 81%
    01:00 +19°C° 0 mm 1 m/s 751 mmHg 83%
    02:00 +18°C° 0 mm 1 m/s 751 mmHg 81%
    03:00 +18°C° 0 mm 1 m/s 751 mmHg 79%
    04:00 +18°C° 0 mm 1 m/s 750 mmHg 77%
    05:00 +19°C° 0 mm 1 m/s 750 mmHg 75%
    06:00 +20°C° 0 mm 1 m/s 751 mmHg 73%
    07:00 +21°C° 0 mm 1 m/s 751 mmHg 72%
    08:00 +23°C° 0 mm 1 m/s 751 mmHg 67%
    09:00 +24°C° 0 mm 1 m/s 751 mmHg 63%
    10:00 +26°C° 0 mm 1 m/s 750 mmHg 58%
    11:00 +26°C° 0 mm 1 m/s 750 mmHg 56%
    12:00 +27°C° 0 mm 1 m/s 750 mmHg 54%
    13:00 +28°C° 0 mm 1 m/s 750 mmHg 52%
    14:00 +28°C° 0 mm 1 m/s 750 mmHg 53%
    15:00 +28°C° 0 mm 2 m/s 749 mmHg 54%
    16:00 +28°C° 0 mm 2 m/s 749 mmHg 55%
    17:00 +27°C° 0 mm 2 m/s 749 mmHg 62%
    18:00 +26°C° 0 mm 2 m/s 749 mmHg 68%
    19:00 +24°C° 0 mm 2 m/s 749 mmHg 75%
    20:00 +23°C° 0 mm 2 m/s 748 mmHg 77%
    21:00 +21°C° 0 mm 1 m/s 748 mmHg 79%
    22:00 +20°C° 0 mm 1 m/s 748 mmHg 81%
    23:00 +19°C° 0 mm 1 m/s 748 mmHg 82%

    27 Iulie, Sâmbătă

    Timp Temperatura Precipitaţii Vânt Presiune Umiditate
    00:00 +19°C° 0 mm 1 m/s 748 mmHg 83%
    01:00 +18°C° 0 mm 1 m/s 748 mmHg 84%
    02:00 +16°C° 0 mm 0 m/s 748 mmHg 85%
    03:00 +16°C° 0 mm 0 m/s 748 mmHg 86%
    04:00 +15°C° 0 mm 0 m/s 747 mmHg 86%
    05:00 +17°C° 0 mm 0 m/s 747 mmHg 84%
    06:00 +18°C° 0 mm 0 m/s 747 mmHg 81%
    07:00 +20°C° 0 mm 0 m/s 747 mmHg 79%
    08:00 +21°C° 0 mm 0 m/s 747 mmHg 75%
    09:00 +24°C° 0 mm 1 m/s 746 mmHg 70%
    10:00 +26°C° 0 mm 1 m/s 746 mmHg 66%
    11:00 +26°C° 0.1 mm 1 m/s 746 mmHg 63%
    12:00 +27°C° 0.1 mm 2 m/s 745 mmHg 61%
    13:00 +27°C° 0.1 mm 2 m/s 745 mmHg 58%
    14:00 +27°C° 0.1 mm 3 m/s 745 mmHg 60%
    15:00 +27°C° 0.1 mm 3 m/s 744 mmHg 62%
    16:00 +27°C° 0.1 mm 3 m/s 744 mmHg 63%
    17:00 +26°C° 0.3 mm 3 m/s 743 mmHg 68%
    18:00 +25°C° 0.3 mm 2 m/s 743 mmHg 74%
    19:00 +24°C° 0.3 mm 2 m/s 742 mmHg 79%
    20:00 +23°C° 0 mm 2 m/s 742 mmHg 81%
    21:00 +20°C° 0 mm 2 m/s 742 mmHg 83%
    22:00 +19°C° 0 mm 2 m/s 741 mmHg 85%
    23:00 +19°C° 0 mm 2 m/s 741 mmHg 86%
    Arată mai mult